| time (UTC) | temp C | wind direction | speed KPH | gust KPH | rain 1hr cm | rain 24hr cm | rain mn cm | humidity % | barometer mb |
| 20260506214115 | 10 | 216 | 0.0 | 12.9 | 0.00 | 12.90 | 0.13 | 82 | 1009.5 |
| 20260506213636 | 10 | 199 | 19.3 | 16.1 | 0.00 | 12.90 | 0.13 | 82 | 1009.4 |
| 20260506213156 | 10 | 188 | 8.0 | 3.2 | 0.00 | 12.90 | 0.13 | 82 | 1009.4 |
| 20260506212736 | 10 | 191 | 8.0 | 9.7 | 0.00 | 12.90 | 0.13 | 82 | 1009.5 |
| 20260506212246 | 10 | 92 | 9.7 | 1.6 | 0.00 | 12.90 | 0.13 | 83 | 1009.4 |
| 20260506211828 | 10 | 154 | 3.2 | 11.3 | 0.00 | 12.90 | 0.13 | 83 | 1009.3 |
| 20260506211341 | 10 | 80 | 1.6 | 4.8 | 0.00 | 12.90 | 0.13 | 83 | 1009.3 |
| 20260506210928 | 10 | 215 | 3.2 | 20.9 | 0.00 | 12.90 | 0.13 | 83 | 1009.2 |
| 20260506210436 | 10 | 161 | 4.8 | 8.0 | 0.00 | 12.90 | 0.13 | 83 | 1009.2 |
| 20260506205941 | 10 | 234 | 8.0 | 12.9 | 0.00 | 12.90 | 0.13 | 83 | 1009.2 |
| 20260506205508 | 10 | 158 | 3.2 | 9.7 | 0.00 | 12.88 | 0.10 | 83 | 1009.2 |
| 20260506205013 | 10 | 71 | 3.2 | 0.0 | 0.00 | 12.88 | 0.10 | 83 | 1009.3 |
| 20260506204551 | 10 | 178 | 1.6 | 9.7 | 0.00 | 12.88 | 0.10 | 83 | 1009.2 |
| 20260506204138 | 10 | 162 | 1.6 | 0.0 | 0.00 | 12.88 | 0.10 | 83 | 1009.3 |
| 20260506203731 | 10 | 88 | 8.0 | 3.2 | 0.00 | 12.88 | 0.10 | 82 | 1009.2 |
| 20260506203246 | 10 | 243 | 11.3 | 12.9 | 0.00 | 12.88 | 0.10 | 82 | 1009.2 |
| 20260506202746 | 10 | 222 | 8.0 | 3.2 | 0.00 | 12.88 | 0.10 | 83 | 1009.1 |
| 20260506202326 | 10 | 7 | 3.2 | 4.8 | 0.00 | 12.88 | 0.10 | 83 | 1009.0 |
| 20260506201846 | 10 | 200 | 8.0 | 16.1 | 0.00 | 12.88 | 0.10 | 84 | 1009.0 |
| 20260506201406 | 11 | 264 | 1.6 | 20.9 | 0.00 | 12.88 | 0.10 | 84 | 1009.0 |
| 20260506200911 | 11 | 205 | 3.2 | 8.0 | 0.00 | 12.88 | 0.10 | 84 | 1009.0 |
| 20260506200441 | 11 | 185 | 12.9 | 6.4 | 0.00 | 12.88 | 0.10 | 85 | 1009.0 |
| 20260506195946 | 11 | 172 | 9.7 | 8.0 | 0.00 | 12.88 | 0.10 | 85 | 1008.9 |
| 20260506195518 | 11 | 192 | 11.3 | 9.7 | 0.00 | 12.88 | 0.10 | 85 | 1008.7 |
| 20260506195116 | 11 | 110 | 3.2 | 11.3 | 0.00 | 12.88 | 0.10 | 86 | 1008.7 |
| 20260506194621 | 11 | 222 | 1.6 | 0.0 | 0.00 | 12.88 | 0.10 | 87 | 1008.6 |
| 20260506194148 | 11 | 128 | 4.8 | 0.0 | 0.00 | 12.88 | 0.10 | 87 | 1008.5 |
| 20260506193716 | 11 | 304 | 8.0 | 0.0 | 0.00 | 12.88 | 0.10 | 87 | 1008.5 |
| 20260506193216 | 11 | 181 | 12.9 | 3.2 | 0.00 | 12.88 | 0.10 | 87 | 1008.4 |
| 20260506192726 | 11 | 263 | 0.0 | 0.0 | 0.00 | 12.88 | 0.10 | 88 | 1008.4 |
| 20260506192311 | 11 | 123 | 0.0 | 0.0 | 0.00 | 12.88 | 0.10 | 88 | 1008.2 |
| 20260506191841 | 11 | 161 | 0.0 | 0.0 | 0.00 | 12.88 | 0.10 | 88 | 1008.2 |
| 20260506191356 | 11 | 164 | 1.6 | 0.0 | 0.00 | 12.88 | 0.10 | 88 | 1008.3 |
| 20260506190908 | 11 | 155 | 4.8 | 0.0 | 0.00 | 12.88 | 0.10 | 88 | 1008.2 |
| 20260506190421 | 11 | 161 | 3.2 | 0.0 | 0.00 | 12.88 | 0.10 | 89 | 1008.1 |
| 20260506190008 | 11 | 182 | 1.6 | 0.0 | 0.00 | 12.88 | 0.10 | 89 | 1008.1 |
| 20260506185508 | 11 | 182 | 1.6 | 0.0 | 0.00 | 12.88 | 0.10 | 89 | 1008.0 |
| 20260506185106 | 11 | 226 | 4.8 | 20.9 | 0.00 | 12.88 | 0.10 | 89 | 1008.0 |
| 20260506184701 | 11 | 114 | 0.0 | 0.0 | 0.00 | 12.88 | 0.10 | 89 | 1007.9 |
| 20260506184216 | 11 | 181 | 9.7 | 6.4 | 0.00 | 12.88 | 0.10 | 89 | 1007.8 |
| 20260506183806 | 11 | 217 | 4.8 | 4.8 | 0.00 | 12.88 | 0.10 | 90 | 1007.8 |
| 20260506183401 | 10 | 116 | 6.4 | 0.0 | 0.00 | 12.88 | 0.10 | 90 | 1007.8 |
| 20260506182946 | 10 | 154 | 0.0 | 1.6 | 0.00 | 12.88 | 0.10 | 90 | 1007.7 |
| 20260506182528 | 10 | 353 | 4.8 | 0.0 | 0.00 | 12.88 | 0.10 | 90 | 1007.7 |
| 20260506182101 | 10 | 216 | 1.6 | 0.0 | 0.00 | 12.88 | 0.10 | 90 | 1007.6 |
| 20260506181628 | 11 | 232 | 0.0 | 14.5 | 0.00 | 12.88 | 0.10 | 90 | 1007.6 |
| 20260506181131 | 11 | 215 | 6.4 | 19.3 | 0.00 | 12.88 | 0.10 | 90 | 1007.6 |
| 20260506180721 | 11 | 103 | 0.0 | 0.0 | 0.00 | 12.88 | 0.10 | 90 | 1007.6 |
| 20260506180241 | 11 | 271 | 0.0 | 1.6 | 0.00 | 12.88 | 0.10 | 90 | 1007.6 |
| 20260506175818 | 11 | 182 | 8.0 | 6.4 | 0.00 | 12.88 | 0.10 | 91 | 1007.6 |
| 20260506175328 | 11 | 179 | 0.0 | 4.8 | 0.00 | 12.88 | 0.10 | 91 | 1007.6 |
| 20260506174841 | 11 | 8 | 9.7 | 0.0 | 0.00 | 12.88 | 0.10 | 91 | 1007.4 |
| 20260506174408 | 11 | 151 | 0.0 | 0.0 | 0.00 | 12.88 | 0.10 | 91 | 1007.4 |
| 20260506174006 | 11 | 151 | 0.0 | 0.0 | 0.00 | 12.88 | 0.10 | 91 | 1007.3 |
| 20260506173548 | 11 | 151 | 0.0 | 0.0 | 0.00 | 12.88 | 0.10 | 91 | 1007.3 |
| 20260506173106 | 11 | 151 | 0.0 | 0.0 | 0.00 | 12.88 | 0.10 | 92 | 1007.2 |
| 20260506172608 | 11 | 62 | 11.3 | 0.0 | 0.00 | 12.88 | 0.10 | 92 | 1007.2 |
| 20260506172116 | 11 | 158 | 6.4 | 0.0 | 0.00 | 12.88 | 0.10 | 92 | 1007.3 |
| 20260506171656 | 11 | 69 | 0.0 | 0.0 | 0.00 | 12.88 | 0.10 | 92 | 1007.2 |
| 20260506171208 | 11 | 69 | 0.0 | 0.0 | 0.00 | 12.88 | 0.08 | 92 | 1007.1 |
| 20260506170806 | 11 | 69 | 0.0 | 0.0 | 0.00 | 12.88 | 0.08 | 92 | 1007.1 |
| 20260506170321 | 11 | 69 | 0.0 | 0.0 | 0.00 | 12.88 | 0.08 | 92 | 1007.1 |
| 20260506165906 | 11 | 69 | 0.0 | 0.0 | 0.00 | 12.88 | 0.08 | 92 | 1007.1 |
| 20260506165441 | 11 | 69 | 4.8 | 0.0 | 0.00 | 12.88 | 0.08 | 92 | 1007.2 |
| 20260506165016 | 11 | 294 | 0.0 | 0.0 | 0.00 | 12.88 | 0.08 | 92 | 1007.2 |
| 20260506164611 | 11 | 217 | 1.6 | 0.0 | 0.00 | 12.88 | 0.08 | 92 | 1007.2 |
| 20260506164136 | 11 | 13 | 8.0 | 9.7 | 0.00 | 12.88 | 0.08 | 92 | 1007.2 |
| 20260506163736 | 11 | 289 | 8.0 | 11.3 | 0.00 | 12.88 | 0.08 | 91 | 1007.2 |
| 20260506163252 | 11 | 0 | 4.8 | 11.3 | 0.00 | 12.88 | 0.08 | 91 | 1007.1 |
| 20260506162811 | 11 | 13 | 6.4 | 9.7 | 0.00 | 12.88 | 0.08 | 91 | 1006.9 |
| 20260506162408 | 11 | 335 | 14.5 | 11.3 | 0.00 | 12.88 | 0.08 | 91 | 1006.9 |
| 20260506161956 | 11 | 14 | 14.5 | 4.8 | 0.00 | 12.88 | 0.08 | 91 | 1006.9 |
| 20260506161501 | 11 | 360 | 9.7 | 8.0 | 0.00 | 12.88 | 0.08 | 91 | 1006.8 |
| 20260506161040 | 11 | 254 | 12.9 | 8.0 | 0.00 | 12.88 | 0.08 | 90 | 1006.8 |
| 20260506160628 | 11 | 61 | 17.7 | 19.3 | 0.00 | 12.88 | 0.08 | 90 | 1006.8 |
| 20260506160221 | 11 | 344 | 4.8 | 0.0 | 0.00 | 12.88 | 0.08 | 90 | 1006.7 |
| 20260506155746 | 12 | 311 | 8.0 | 4.8 | 0.00 | 12.88 | 0.08 | 90 | 1006.8 |
| 20260506155326 | 12 | 326 | 8.0 | 1.6 | 0.00 | 12.88 | 0.08 | 90 | 1006.7 |
| 20260506154911 | 12 | 92 | 12.9 | 4.8 | 0.00 | 12.88 | 0.08 | 90 | 1006.7 |
| 20260506154421 | 12 | 346 | 9.7 | 8.0 | 0.00 | 12.88 | 0.08 | 90 | 1006.7 |
| 20260506154016 | 12 | 28 | 8.0 | 6.4 | 0.00 | 12.88 | 0.08 | 90 | 1006.6 |
| 20260506153606 | 12 | 306 | 1.6 | 6.4 | 0.00 | 12.88 | 0.08 | 89 | 1006.6 |
| 20260506153201 | 12 | 311 | 0.0 | 1.6 | 0.00 | 12.88 | 0.08 | 89 | 1006.6 |
| 20260506152716 | 12 | 287 | 6.4 | 4.8 | 0.00 | 12.88 | 0.08 | 89 | 1006.6 |
| 20260506152216 | 12 | 200 | 9.7 | 3.2 | 0.00 | 12.88 | 0.08 | 88 | 1006.6 |
| 20260506151801 | 12 | 265 | 6.4 | 3.2 | 0.00 | 12.88 | 0.08 | 88 | 1006.6 |
| 20260506151306 | 12 | 126 | 0.0 | 0.0 | 0.00 | 12.88 | 0.08 | 89 | 1006.5 |
| 20260506150816 | 12 | 126 | 0.0 | 0.0 | 0.00 | 12.88 | 0.08 | 89 | 1006.5 |
| 20260506150408 | 12 | 126 | 1.6 | 0.0 | 0.00 | 12.88 | 0.08 | 89 | 1006.5 |
| 20260506145956 | 12 | 174 | 0.0 | 0.0 | 0.00 | 12.88 | 0.08 | 89 | 1006.5 |
| 20260506145541 | 12 | 174 | 0.0 | 0.0 | 0.00 | 12.88 | 0.08 | 89 | 1006.5 |
| 20260506145106 | 12 | 174 | 0.0 | 0.0 | 0.00 | 12.88 | 0.08 | 89 | 1006.4 |
| 20260506144611 | 12 | 174 | 0.0 | 0.0 | 0.00 | 12.88 | 0.08 | 89 | 1006.3 |
| 20260506144206 | 12 | 174 | 0.0 | 0.0 | 0.00 | 12.88 | 0.08 | 88 | 1006.4 |
| 20260506143741 | 12 | 174 | 0.0 | 0.0 | 0.00 | 12.88 | 0.08 | 88 | 1006.3 |
| 20260506143328 | 12 | 174 | 0.0 | 0.0 | 0.00 | 12.88 | 0.08 | 87 | 1006.3 |
| 20260506142828 | 12 | 174 | 0.0 | 0.0 | 0.00 | 12.88 | 0.05 | 86 | 1006.2 |
| 20260506142333 | 12 | 174 | 0.0 | 0.0 | 0.00 | 12.88 | 0.05 | 86 | 1006.1 |
| 20260506141936 | 12 | 174 | 0.0 | 0.0 | 0.00 | 12.88 | 0.05 | 86 | 1006.1 |
| 20260506141521 | 12 | 277 | 1.6 | 3.2 | 0.00 | 12.88 | 0.05 | 85 | 1006.1 |
| 20260506141036 | 12 | 175 | 0.0 | 0.0 | 0.00 | 12.88 | 0.05 | 85 | 1006.2 |
| 20260506140611 | 12 | 258 | 1.6 | 9.7 | 0.00 | 12.88 | 0.05 | 85 | 1006.1 |
| 20260506140121 | 12 | 11 | 3.2 | 0.0 | 0.00 | 12.88 | 0.05 | 85 | 1006.0 |
| 20260506135634 | 12 | 343 | 1.6 | 4.8 | 0.00 | 12.88 | 0.05 | 85 | 1006.0 |
| 20260506135221 | 13 | 172 | 0.0 | 0.0 | 0.00 | 12.88 | 0.05 | 85 | 1006.0 |
| 20260506134811 | 12 | 172 | 0.0 | 1.6 | 0.00 | 12.88 | 0.05 | 85 | 1006.0 |
| 20260506134348 | 12 | 127 | 0.0 | 0.0 | 0.00 | 12.88 | 0.05 | 84 | 1006.0 |
| 20260506133906 | 13 | 137 | 0.0 | 4.8 | 0.00 | 12.88 | 0.05 | 84 | 1005.9 |
| 20260506133426 | 13 | 200 | 0.0 | 0.0 | 0.00 | 12.88 | 0.05 | 83 | 1006.0 |
| 20260506132956 | 13 | 200 | 0.0 | 0.0 | 0.00 | 12.88 | 0.05 | 83 | 1006.0 |
| 20260506132518 | 13 | 213 | 0.0 | 0.0 | 0.00 | 12.88 | 0.05 | 82 | 1005.9 |
| 20260506132031 | 13 | 213 | 0.0 | 0.0 | 0.00 | 12.88 | 0.05 | 80 | 1005.7 |
| 20260506131616 | 13 | 213 | 0.0 | 0.0 | 0.00 | 12.88 | 0.05 | 78 | 1005.7 |
| 20260506131156 | 13 | 213 | 0.0 | 0.0 | 0.00 | 12.88 | 0.05 | 77 | 1005.7 |
| 20260506130701 | 14 | 213 | 0.0 | 0.0 | 0.00 | 12.88 | 0.05 | 76 | 1005.6 |
| 20260506130248 | 14 | 213 | 0.0 | 0.0 | 0.00 | 12.88 | 0.05 | 76 | 1005.6 |
| 20260506125836 | 14 | 189 | 3.2 | 4.8 | 0.00 | 12.88 | 0.05 | 76 | 1005.6 |
| 20260506125346 | 15 | 196 | 8.0 | 3.2 | 0.00 | 12.88 | 0.05 | 75 | 1005.5 |
| 20260506124921 | 15 | 244 | 9.7 | 6.4 | 0.00 | 12.88 | 0.05 | 74 | 1005.4 |
| 20260506124516 | 15 | 275 | 0.0 | 0.0 | 0.00 | 12.88 | 0.03 | 74 | 1005.3 |
| 20260506124051 | 15 | 275 | 0.0 | 0.0 | 0.00 | 12.88 | 0.03 | 76 | 1005.3 |
| 20260506123616 | 15 | 275 | 0.0 | 0.0 | 0.00 | 12.88 | 0.03 | 77 | 1005.3 |
| 20260506123141 | 15 | 275 | 0.0 | 0.0 | 0.00 | 12.88 | 0.03 | 77 | 1005.3 |
| 20260506122736 | 15 | 275 | 0.0 | 0.0 | 0.00 | 12.88 | 0.03 | 79 | 1005.3 |
| 20260506122316 | 14 | 275 | 0.0 | 0.0 | 0.00 | 12.88 | 0.03 | 80 | 1005.3 |
| 20260506121816 | 14 | 275 | 0.0 | 0.0 | 0.00 | 12.88 | 0.03 | 80 | 1005.3 |
| 20260506121346 | 14 | 275 | 0.0 | 0.0 | 0.00 | 12.88 | 0.03 | 81 | 1005.3 |
| 20260506120913 | 14 | 304 | 4.8 | 6.4 | 0.00 | 12.88 | 0.03 | 84 | 1005.3 |
| 20260506120426 | 14 | 263 | 3.2 | 0.0 | 0.00 | 12.88 | 0.03 | 84 | 1005.3 |
| 20260506115931 | 13 | 323 | 3.2 | 1.6 | 0.00 | 12.88 | 0.03 | 84 | 1005.3 |
| 20260506115506 | 13 | 359 | 3.2 | 9.7 | 0.00 | 12.88 | 0.03 | 83 | 1005.3 |
| 20260506115021 | 13 | 95 | 0.0 | 0.0 | 0.00 | 12.88 | 0.03 | 83 | 1005.3 |
| 20260506114616 | 13 | 95 | 0.0 | 0.0 | 0.00 | 12.88 | 0.03 | 83 | 1005.4 |
| 20260506114126 | 13 | 95 | 1.6 | 0.0 | 0.00 | 12.88 | 0.03 | 83 | 1005.3 |
| 20260506113638 | 13 | 112 | 8.0 | 6.4 | 0.00 | 12.88 | 0.03 | 83 | 1005.4 |
| 20260506113211 | 13 | 292 | 0.0 | 0.0 | 0.00 | 12.88 | 0.03 | 84 | 1005.4 |
| 20260506112746 | 13 | 316 | 9.7 | 8.0 | 0.00 | 12.88 | 0.03 | 83 | 1005.4 |
| 20260506112248 | 13 | 325 | 4.8 | 6.4 | 0.00 | 12.88 | 0.03 | 82 | 1005.5 |
| 20260506111828 | 13 | 124 | 4.8 | 3.2 | 0.00 | 12.88 | 0.03 | 81 | 1005.6 |
| 20260506111408 | 13 | 119 | 4.8 | 0.0 | 0.00 | 12.88 | 0.03 | 80 | 1005.6 |
| 20260506111001 | 13 | 134 | 9.7 | 8.0 | 0.00 | 12.88 | 0.03 | 81 | 1005.6 |
| 20260506110526 | 14 | 137 | 0.0 | 0.0 | 0.00 | 12.88 | 0.03 | 80 | 1005.6 |
| 20260506110026 | 14 | 131 | 4.8 | 4.8 | 0.00 | 12.88 | 0.00 | 78 | 1005.6 |
| 20260506105616 | 14 | 136 | 6.4 | 1.6 | 0.00 | 12.88 | 0.00 | 77 | 1005.5 |
| 20260506105216 | 15 | 134 | 4.8 | 3.2 | 0.00 | 12.88 | 0.00 | 75 | 1005.4 |
| 20260506104756 | 15 | 114 | 4.8 | 11.3 | 0.00 | 12.88 | 0.00 | 73 | 1005.4 |
| 20260506104356 | 15 | 32 | 3.2 | 0.0 | 0.00 | 12.88 | 0.00 | 73 | 1005.5 |
| 20260506103916 | 15 | 58 | 6.4 | 1.6 | 0.00 | 12.88 | 0.00 | 70 | 1005.5 |
| 20260506103431 | 16 | 72 | 6.4 | 1.6 | 0.00 | 12.88 | 0.00 | 64 | 1005.5 |
| 20260506103016 | 16 | 69 | 1.6 | 9.7 | 0.00 | 12.88 | 0.00 | 62 | 1005.6 |
| 20260506102528 | 16 | 16 | 1.6 | 0.0 | 0.00 | 12.88 | 0.00 | 62 | 1005.5 |
| 20260506102041 | 16 | 353 | 9.7 | 11.3 | 0.00 | 12.88 | 0.00 | 61 | 1005.6 |
| 20260506101626 | 16 | 333 | 8.0 | 11.3 | 0.00 | 12.88 | 0.00 | 61 | 1005.6 |
| 20260506101208 | 16 | 344 | 8.0 | 4.8 | 0.00 | 12.88 | 0.00 | 61 | 1005.6 |
| 20260506100726 | 16 | 280 | 9.7 | 3.2 | 0.00 | 12.88 | 0.00 | 60 | 1005.7 |
| 20260506100246 | 16 | 320 | 9.7 | 0.0 | 0.00 | 12.88 | 0.00 | 59 | 1005.7 |
| 20260506095808 | 16 | 316 | 3.2 | 3.2 | 0.00 | 12.88 | 0.00 | 57 | 1005.7 |
| 20260506095308 | 16 | 55 | 6.4 | 9.7 | 0.00 | 12.88 | 0.00 | 56 | 1005.8 |
| 20260506094856 | 16 | 311 | 1.6 | 3.2 | 0.00 | 12.88 | 0.00 | 57 | 1005.8 |
| 20260506094356 | 16 | 308 | 3.2 | 9.7 | 0.00 | 12.88 | 0.00 | 56 | 1005.7 |
| 20260506093916 | 16 | 323 | 3.2 | 1.6 | 0.00 | 12.88 | 0.00 | 55 | 1005.8 |
| 20260506093416 | 16 | 330 | 0.0 | 1.6 | 0.00 | 12.88 | 0.00 | 56 | 1005.8 |
| 20260506092919 | 16 | 11 | 1.6 | 11.3 | 0.00 | 12.88 | 0.00 | 58 | 1005.8 |
| 20260506092446 | 16 | 253 | 0.0 | 0.0 | 0.00 | 12.88 | 0.00 | 58 | 1005.8 |
| 20260506091946 | 16 | 329 | 0.0 | 6.4 | 0.00 | 12.88 | 0.00 | 58 | 1005.8 |
| 20260506091526 | 16 | 21 | 3.2 | 11.3 | 0.00 | 12.88 | 0.00 | 58 | 1005.8 |
| 20260506091108 | 16 | 27 | 4.8 | 0.0 | 0.00 | 12.88 | 0.00 | 61 | 1005.8 |
| 20260506090648 | 16 | 360 | 0.0 | 0.0 | 0.00 | 12.88 | 0.00 | 61 | 1005.9 |
| 20260506090246 | 16 | 360 | 0.0 | 0.0 | 0.00 | 12.88 | 0.00 | 62 | 1005.8 |
| 20260506085846 | 15 | 78 | 3.2 | 3.2 | 0.00 | 12.88 | 0.00 | 64 | 1005.8 |
| 20260506085441 | 15 | 160 | 6.4 | 3.2 | 0.00 | 12.88 | 0.00 | 66 | 1005.8 |
| 20260506085036 | 15 | 99 | 0.0 | 0.0 | 0.00 | 12.88 | 0.00 | 67 | 1005.8 |
| 20260506084616 | 15 | 99 | 0.0 | 0.0 | 0.00 | 12.88 | 0.00 | 69 | 1005.8 |
| 20260506084148 | 15 | 99 | 0.0 | 0.0 | 0.00 | 12.88 | 0.00 | 69 | 1005.8 |
| 20260506083711 | 14 | 110 | 1.6 | 0.0 | 0.00 | 12.88 | 0.00 | 69 | 1005.8 |
| 20260506083256 | 14 | 8 | 3.2 | 1.6 | 0.00 | 12.88 | 0.00 | 70 | 1005.8 |
| 20260506082756 | 14 | 38 | 4.8 | 1.6 | 0.00 | 12.88 | 0.00 | 69 | 1005.8 |
| 20260506082346 | 14 | 23 | 0.0 | 0.0 | 0.00 | 12.88 | 0.00 | 69 | 1005.9 |
| 20260506081846 | 14 | 6 | 8.0 | 3.2 | 0.00 | 12.88 | 0.00 | 70 | 1005.9 |
| 20260506081356 | 15 | 68 | 3.2 | 9.7 | 0.00 | 12.88 | 0.00 | 69 | 1005.9 |
| 20260506080929 | 15 | 6 | 8.0 | 6.4 | 0.00 | 12.88 | 0.00 | 69 | 1005.9 |
| 20260506080451 | 15 | 11 | 1.6 | 8.0 | 0.00 | 12.88 | 0.00 | 69 | 1005.9 |
| 20260506073156 | 13 | 95 | 0.0 | 0.0 | 0.00 | 12.88 | 0.00 | 74 | 1006.0 |
| 20260506072719 | 13 | 95 | 0.0 | 0.0 | 0.00 | 12.88 | 0.00 | 75 | 1005.9 |
| 20260506062336 | 11 | 151 | 6.4 | 8.0 | 0.00 | 12.88 | 0.00 | 81 | 1006.0 |
| 20260506061926 | 11 | 126 | 0.0 | 0.0 | 0.00 | 12.88 | 0.00 | 81 | 1005.9 |
| 20260506061426 | 11 | 184 | 6.4 | 4.8 | 0.00 | 12.88 | 0.00 | 81 | 1006.0 |
| 20260506061021 | 11 | 144 | 9.7 | 6.4 | 0.00 | 12.88 | 0.00 | 81 | 1006.0 |
| 20260506060606 | 10 | 151 | 6.4 | 6.4 | 0.00 | 12.88 | 0.00 | 81 | 1006.0 |
| 20260506060146 | 10 | 152 | 6.4 | 0.0 | 0.00 | 12.88 | 0.00 | 81 | 1006.1 |
| 20260506051212 | 10 | 144 | 12.9 | 14.5 | 0.00 | 12.88 | 0.00 | 82 | 1006.3 |
| 20260506050754 | 10 | 145 | 6.4 | 14.5 | 0.00 | 12.88 | 0.00 | 82 | 1006.3 |
| 20260506050351 | 10 | 138 | 6.4 | 8.0 | 0.00 | 12.88 | 0.00 | 82 | 1006.4 |
| 20260506045037 | 10 | 165 | 11.3 | 16.1 | 0.00 | 12.88 | 0.00 | 83 | 1006.5 |
| 20260506044631 | 10 | 137 | 11.3 | 11.3 | 0.00 | 12.88 | 0.00 | 83 | 1006.5 |
| 20260506044201 | 10 | 198 | 12.9 | 14.5 | 0.00 | 12.88 | 0.00 | 83 | 1006.4 |
| 20260506043721 | 10 | 191 | 11.3 | 11.3 | 0.00 | 12.88 | 0.00 | 82 | 1006.4 |
| 20260506043234 | 10 | 144 | 12.9 | 12.9 | 0.00 | 12.88 | 0.00 | 82 | 1006.4 |
| 20260506042811 | 10 | 176 | 9.7 | 9.7 | 0.00 | 12.88 | 0.00 | 82 | 1006.3 |
| 20260506042334 | 10 | 160 | 6.4 | 4.8 | 0.00 | 12.88 | 0.00 | 82 | 1006.3 |
| 20260506041911 | 10 | 171 | 6.4 | 6.4 | 0.00 | 12.88 | 0.00 | 82 | 1006.3 |
| 20260506041421 | 10 | 151 | 0.0 | 8.0 | 0.00 | 12.88 | 0.00 | 82 | 1006.2 |
| 20260506040926 | 10 | 191 | 0.0 | 0.0 | 0.00 | 12.88 | 0.00 | 82 | 1006.3 |
| 20260506040434 | 10 | 164 | 0.0 | 0.0 | 0.00 | 12.88 | 0.00 | 82 | 1006.2 |
| 20260506040001 | 10 | 164 | 0.0 | 0.0 | 0.00 | 12.88 | 0.00 | 82 | 1006.1 |
| 20260506035514 | 10 | 120 | 6.4 | 6.4 | 0.00 | 12.88 | 0.00 | 82 | 1006.2 |
| 20260506035041 | 10 | 140 | 0.0 | 0.0 | 0.00 | 12.88 | 0.00 | 82 | 1006.2 |
| 20260506034551 | 10 | 140 | 0.0 | 0.0 | 0.00 | 12.88 | 0.00 | 82 | 1006.3 |
| 20260506034116 | 10 | 140 | 0.0 | 0.0 | 0.00 | 12.88 | 0.00 | 82 | 1006.4 |
| 20260506033711 | 10 | 140 | 0.0 | 0.0 | 0.00 | 12.88 | 0.00 | 82 | 1006.3 |
| 20260506033311 | 10 | 140 | 0.0 | 0.0 | 0.00 | 12.88 | 0.00 | 82 | 1006.4 |
| 20260506032854 | 10 | 138 | 6.4 | 6.4 | 0.00 | 12.88 | 0.00 | 82 | 1006.5 |
| 20260506032416 | 10 | 126 | 0.0 | 0.0 | 0.00 | 12.88 | 0.00 | 82 | 1006.6 |
| 20260506031946 | 10 | 126 | 0.0 | 0.0 | 0.00 | 12.88 | 0.00 | 82 | 1006.6 |
| 20260506031516 | 10 | 126 | 3.2 | 0.0 | 0.00 | 12.88 | 0.00 | 83 | 1006.6 |
| 20260506031111 | 10 | 88 | 0.0 | 0.0 | 0.00 | 12.88 | 0.00 | 83 | 1006.7 |
| 20260506030621 | 10 | 144 | 3.2 | 8.0 | 0.00 | 12.88 | 0.00 | 83 | 1006.7 |
| 20260506030136 | 10 | 175 | 1.6 | 0.0 | 0.00 | 12.88 | 0.00 | 83 | 1006.7 |
| 20260506025721 | 10 | 97 | 0.0 | 0.0 | 0.00 | 12.88 | 0.00 | 83 | 1006.7 |
| 20260506025321 | 10 | 97 | 0.0 | 0.0 | 0.00 | 12.88 | 0.00 | 83 | 1006.7 |
| 20260506024906 | 10 | 150 | 8.0 | 0.0 | 0.00 | 12.88 | 0.00 | 83 | 1006.6 |
| 20260506024424 | 10 | 192 | 3.2 | 0.0 | 0.00 | 12.88 | 0.00 | 83 | 1006.6 |
| 20260506024001 | 10 | 147 | 6.4 | 8.0 | 0.00 | 12.88 | 0.00 | 83 | 1006.6 |
| 20260506023531 | 10 | 179 | 12.9 | 9.7 | 0.00 | 12.88 | 0.00 | 83 | 1006.6 |
| 20260506023045 | 10 | 157 | 9.7 | 9.7 | 0.00 | 12.88 | 0.00 | 83 | 1006.7 |
| 20260506022646 | 10 | 175 | 8.0 | 11.3 | 0.00 | 12.88 | 0.00 | 82 | 1006.6 |
| 20260506022234 | 10 | 193 | 0.0 | 0.0 | 0.00 | 12.88 | 0.00 | 82 | 1006.6 |
| 20260506021831 | 10 | 193 | 0.0 | 0.0 | 0.00 | 12.88 | 0.00 | 82 | 1006.7 |
| 20260506021414 | 10 | 193 | 0.0 | 0.0 | 0.00 | 12.88 | 0.00 | 82 | 1006.7 |
| 20260506020921 | 10 | 193 | 0.0 | 0.0 | 0.00 | 12.88 | 0.00 | 82 | 1006.7 |
| 20260506020521 | 10 | 193 | 0.0 | 0.0 | 0.00 | 12.88 | 0.00 | 82 | 1006.8 |
| 20260506020036 | 10 | 193 | 0.0 | 0.0 | 0.00 | 12.88 | 0.00 | 82 | 1006.9 |
| 20260506015626 | 10 | 196 | 0.0 | 0.0 | 0.00 | 12.88 | 0.00 | 82 | 1006.9 |
| 20260506015219 | 10 | 196 | 0.0 | 0.0 | 0.00 | 12.88 | 0.00 | 82 | 1007.1 |
| 20260506014731 | 10 | 227 | 0.0 | 0.0 | 0.00 | 12.88 | 0.00 | 83 | 1007.1 |
| 20260506014258 | 10 | 152 | 3.2 | 9.7 | 0.00 | 12.88 | 0.00 | 83 | 1007.2 |
| 20260506013801 | 10 | 134 | 0.0 | 0.0 | 0.00 | 12.88 | 0.00 | 83 | 1007.2 |
| 20260506013351 | 10 | 134 | 0.0 | 0.0 | 0.00 | 12.88 | 0.00 | 83 | 1007.2 |
| 20260506012919 | 10 | 134 | 3.2 | 0.0 | 0.00 | 12.88 | 0.00 | 83 | 1007.2 |
| 20260506012451 | 10 | 179 | 0.0 | 0.0 | 0.00 | 12.88 | 0.00 | 83 | 1007.2 |
| 20260506012016 | 10 | 179 | 0.0 | 0.0 | 0.00 | 12.88 | 0.00 | 83 | 1007.2 |
| 20260506011546 | 10 | 179 | 0.0 | 0.0 | 0.00 | 12.88 | 0.00 | 83 | 1007.1 |
| 20260506011139 | 10 | 179 | 0.0 | 0.0 | 0.00 | 12.88 | 0.00 | 83 | 1007.2 |
| 20260506010711 | 10 | 179 | 0.0 | 0.0 | 0.00 | 12.88 | 0.00 | 83 | 1007.2 |
| 20260506010301 | 10 | 179 | 0.0 | 0.0 | 0.00 | 12.88 | 0.00 | 83 | 1007.1 |
| 20260506005856 | 10 | 179 | 0.0 | 0.0 | 0.00 | 12.88 | 0.00 | 83 | 1007.1 |
| 20260506005421 | 10 | 179 | 0.0 | 0.0 | 0.00 | 12.88 | 0.00 | 83 | 1006.9 |
| 20260506005001 | 10 | 179 | 0.0 | 0.0 | 0.00 | 12.88 | 0.00 | 83 | 1006.8 |
| 20260506004554 | 10 | 179 | 4.8 | 0.0 | 0.00 | 12.88 | 0.00 | 83 | 1006.9 |
| 20260506004111 | 10 | 161 | 0.0 | 0.0 | 0.00 | 12.88 | 0.00 | 83 | 1006.9 |
| 20260506003654 | 10 | 145 | 6.4 | 6.4 | 0.00 | 12.88 | 0.00 | 83 | 1007.1 |
| 20260506003212 | 10 | 147 | 3.2 | 9.7 | 0.00 | 12.88 | 0.00 | 83 | 1007.2 |
| 20260506002814 | 10 | 165 | 6.4 | 9.7 | 0.00 | 12.88 | 0.00 | 83 | 1007.2 |
| 20260506002406 | 10 | 164 | 4.8 | 4.8 | 0.00 | 12.88 | 0.00 | 83 | 1007.3 |
| 20260506001934 | 10 | 185 | 0.0 | 0.0 | 0.00 | 12.88 | 0.00 | 83 | 1007.3 |
| 20260506001439 | 10 | 185 | 3.2 | 0.0 | 0.00 | 12.88 | 0.00 | 82 | 1007.4 |
| 20260506000946 | 10 | 176 | 0.0 | 0.0 | 0.00 | 12.88 | 0.00 | 82 | 1007.5 |
| 20260506000526 | 10 | 200 | 4.8 | 3.2 | 0.00 | 12.88 | 0.00 | 82 | 1007.5 |
| 20260506000041 | 10 | 179 | 0.0 | 0.0 | 0.00 | 12.88 | 0.00 | 82 | 1007.6 |
| 20260505235621 | 10 | 179 | 0.0 | 0.0 | 0.00 | 12.88 | 0.00 | 82 | 1007.6 |
| 20260505235141 | 10 | 179 | 0.0 | 0.0 | 0.00 | 12.88 | 0.00 | 82 | 1007.6 |
| 20260505234651 | 10 | 179 | 0.0 | 0.0 | 0.00 | 12.88 | 0.00 | 83 | 1007.7 |
| 20260505234206 | 10 | 179 | 0.0 | 0.0 | 0.00 | 12.88 | 0.00 | 83 | 1007.7 |
| 20260505233706 | 10 | 179 | 0.0 | 0.0 | 0.00 | 12.88 | 0.00 | 83 | 1007.7 |
| 20260505233234 | 10 | 179 | 0.0 | 0.0 | 0.00 | 12.88 | 0.00 | 83 | 1007.7 |
| 20260505232811 | 10 | 179 | 0.0 | 0.0 | 0.00 | 12.88 | 0.00 | 83 | 1007.8 |
| 20260505232314 | 10 | 157 | 0.0 | 8.0 | 0.00 | 12.88 | 0.00 | 83 | 1007.9 |
| 20260505231834 | 10 | 116 | 4.8 | 0.0 | 0.00 | 12.88 | 0.00 | 83 | 1007.8 |
| 20260505231416 | 10 | 193 | 8.0 | 11.3 | 0.00 | 12.88 | 0.00 | 83 | 1007.8 |
| 20260505231011 | 10 | 158 | 11.3 | 11.3 | 0.00 | 12.88 | 0.00 | 83 | 1007.8 |
| 20260505230536 | 10 | 185 | 9.7 | 9.7 | 0.00 | 12.88 | 0.00 | 83 | 1007.8 |
| 20260505230051 | 10 | 169 | 0.0 | 0.0 | 0.00 | 12.88 | 0.00 | 83 | 1007.8 |
| 20260505225554 | 10 | 169 | 4.8 | 1.6 | 0.00 | 12.88 | 0.28 | 83 | 1007.9 |
| 20260505225054 | 10 | 151 | 8.0 | 9.7 | 0.00 | 12.88 | 0.28 | 83 | 1007.9 |
| 20260505224624 | 11 | 171 | 6.4 | 6.4 | 0.00 | 12.88 | 0.28 | 83 | 1007.9 |
| 20260505224141 | 11 | 182 | 9.7 | 4.8 | 0.00 | 12.88 | 0.28 | 83 | 1007.8 |
| 20260505223651 | 11 | 160 | 6.4 | 6.4 | 0.00 | 12.88 | 0.28 | 83 | 1007.8 |
| 20260505223241 | 11 | 172 | 9.7 | 6.4 | 0.00 | 12.88 | 0.28 | 83 | 1007.8 |
| 20260505222741 | 11 | 152 | 9.7 | 0.0 | 0.00 | 12.88 | 0.28 | 83 | 1007.8 |
| 20260505222334 | 11 | 140 | 11.3 | 24.1 | 0.00 | 12.88 | 0.28 | 83 | 1007.7 |
| 20260505221934 | 11 | 172 | 14.5 | 12.9 | 0.00 | 12.88 | 0.28 | 83 | 1007.8 |
| 20260505221501 | 11 | 227 | 6.4 | 12.9 | 0.00 | 12.88 | 0.28 | 83 | 1007.8 |
| 20260505221046 | 11 | 241 | 14.5 | 14.5 | 0.00 | 12.88 | 0.28 | 83 | 1007.8 |
| 20260505220626 | 11 | 138 | 11.3 | 9.7 | 0.00 | 12.88 | 0.25 | 82 | 1007.8 |
| 20260505220154 | 11 | 152 | 3.2 | 0.0 | 0.00 | 12.88 | 0.25 | 82 | 1007.8 |
| 20260505215750 | 11 | 151 | 0.0 | 9.7 | 0.00 | 12.88 | 0.25 | 82 | 1007.8 |
| 20260505215334 | 11 | 138 | 12.9 | 17.7 | 0.00 | 12.88 | 0.25 | 82 | 1007.8 |
| 20260505214857 | 11 | 148 | 12.9 | 12.9 | 0.00 | 12.88 | 0.25 | 82 | 1007.9 |
| 20260505214421 | 11 | 148 | 11.3 | 16.1 | 0.00 | 12.88 | 0.25 | 82 | 1007.9 |